Retour au catalogue

STARLINK-32934

ActifCommunicationsVLEO
NORAD 63200·PAYLOAD·🇺🇸 United States

Lancé Mar 13, 2025 depuis Cape Canaveral Space Force Station

Loading…

Prochains Passages (prochaines 24 heures)

TLE

FraisSource: CelesTrak SupGP

Époque: Sep 14, 2026, 22:49 UTC

1 63200C 25048T   26257.95118056  .00049247  00000+0  17842-2 0  2573
2 63200  43.0000  96.2088 0001412 273.9147 323.5671 15.27545566    18

Suivez STARLINK-32934 en temps réel avec AllMySat

Download on the App Store